Location: Curupao
(10.4996°N, 66.6442°W)
Time: 20:28:02
(UTC+00:00)

ASTEX 1 - Pass Details

Date: 23 May 2024
Orbit: 715 x 740 km, 92.7° (Epoch: 22 June)

Event Time Altitude Azimuth Distance (km) Brightness Sun altitude
Exits shadow 09:00:48 23° 248° (WSW) 1,516 4.4 -15.1°
Maximum altitude 09:01:42 25° 265° (W) 1,466 4.4 -14.9°
Drops below altitude 10° 09:05:42 10° 320° (NW) 2,228 5.7 -14.0°
Sets 09:08:22 0° 333° (NNW) 3,146 6.7 -13.4°
